| time (UTC) | temp F | wind direction | speed MPH | gust MPH | rain 1hr in | rain 24hr in | rain mn in | humidity % | barometer mb |
| 20260901163005 | 92 | 298 | 1.0 | 7.0 | 0.00 | 0.00 | 0.00 | 57 | 1017.2 |
| 20260901161501 | 91 | 303 | 4.0 | 10.0 | 0.00 | 0.00 | 0.00 | 56 | 1017.1 |
| 20260901160101 | 90 | 305 | 6.0 | 13.0 | 0.00 | 0.00 | 0.00 | 58 | 1017.2 |
| 20260901154555 | 90 | 268 | 1.0 | 8.0 | 0.00 | 0.00 | 0.00 | 56 | 1017.3 |
| 20260901153051 | 89 | 288 | 2.0 | 12.0 | 0.00 | 0.00 | 0.00 | 58 | 1017.3 |
| 20260901151549 | 87 | 288 | 1.0 | 6.0 | 0.00 | 0.00 | 0.00 | 62 | 1017.4 |
| 20260901150045 | 86 | 306 | 1.0 | 8.0 | 0.00 | 0.00 | 0.00 | 65 | 1017.3 |
| 20260901144542 | 85 | 296 | 0.0 | 9.0 | 0.00 | 0.00 | 0.00 | 67 | 1017.2 |
| 20260901143043 | 84 | 256 | 0.0 | 5.0 | 0.00 | 0.00 | 0.00 | 67 | 1017.3 |
| 20260901141547 | 84 | 247 | 0.0 | 8.0 | 0.00 | 0.00 | 0.00 | 69 | 1017.4 |
| 20260901140037 | 83 | 281 | 0.0 | 4.0 | 0.00 | 0.00 | 0.00 | 69 | 1017.5 |
| 20260901134537 | 82 | 250 | 0.0 | 5.0 | 0.00 | 0.00 | 0.00 | 69 | 1017.4 |
| 20260901133041 | 82 | 230 | 0.0 | 1.0 | 0.00 | 0.00 | 0.00 | 70 | 1017.4 |
| 20260901131536 | 80 | 230 | 0.0 | 4.0 | 0.00 | 0.00 | 0.00 | 72 | 1017.4 |
| 20260901130032 | 79 | 190 | 0.0 | 3.0 | 0.00 | 0.00 | 0.00 | 75 | 1017.4 |
| 20260901124532 | 77 | 187 | 0.0 | 0.0 | 0.00 | 0.00 | 0.00 | 79 | 1017.3 |
| 20260901123030 | 77 | 187 | 0.0 | 0.0 | 0.00 | 0.00 | 0.00 | 80 | 1017.1 |
| 20260901121527 | 76 | 187 | 0.0 | 0.0 | 0.00 | 0.00 | 0.00 | 80 | 1016.8 |
| 20260901120028 | 76 | 187 | 0.0 | 0.0 | 0.00 | 0.00 | 0.00 | 80 | 1016.7 |
| 20260901114525 | 76 | 187 | 0.0 | 0.0 | 0.00 | 0.00 | 0.00 | 79 | 1016.6 |
| 20260901113023 | 77 | 187 | 0.0 | 0.0 | 0.00 | 0.00 | 0.00 | 79 | 1016.5 |
| 20260901111522 | 77 | 187 | 0.0 | 0.0 | 0.00 | 0.00 | 0.00 | 78 | 1016.3 |
| 20260901110034 | 77 | 187 | 0.0 | 0.0 | 0.00 | 0.00 | 0.00 | 77 | 1016.3 |
| 20260901104520 | 77 | 187 | 0.0 | 0.0 | 0.00 | 0.00 | 0.00 | 76 | 1016.4 |
| 20260901103015 | 78 | 187 | 0.0 | 0.0 | 0.00 | 0.00 | 0.00 | 76 | 1016.1 |
| 20260901101513 | 78 | 187 | 0.0 | 0.0 | 0.00 | 0.00 | 0.00 | 76 | 1016.1 |
| 20260901100012 | 78 | 187 | 0.0 | 0.0 | 0.00 | 0.00 | 0.00 | 75 | 1016.0 |
| 20260901094511 | 79 | 187 | 0.0 | 0.0 | 0.00 | 0.00 | 0.00 | 74 | 1016.0 |
| 20260901093006 | 79 | 187 | 0.0 | 0.0 | 0.00 | 0.00 | 0.00 | 74 | 1016.0 |
| 20260901091505 | 79 | 187 | 0.0 | 0.0 | 0.00 | 0.00 | 0.00 | 74 | 1015.8 |
| 20260901090011 | 79 | 187 | 0.0 | 0.0 | 0.00 | 0.00 | 0.00 | 74 | 1015.8 |
| 20260901084502 | 79 | 187 | 0.0 | 0.0 | 0.00 | 0.00 | 0.00 | 74 | 1015.5 |
| 20260901083101 | 79 | 187 | 0.0 | 0.0 | 0.00 | 0.00 | 0.00 | 75 | 1015.5 |
| 20260901081613 | 80 | 187 | 0.0 | 0.0 | 0.00 | 0.00 | 0.00 | 73 | 1015.4 |
| 20260901074557 | 80 | 187 | 0.0 | 0.0 | 0.00 | 0.00 | 0.00 | 73 | 1015.4 |
| 20260901073054 | 81 | 187 | 0.0 | 0.0 | 0.00 | 0.00 | 0.00 | 73 | 1015.4 |
| 20260901071558 | 81 | 187 | 0.0 | 0.0 | 0.00 | 0.00 | 0.00 | 73 | 1015.4 |
| 20260901070059 | 81 | 187 | 0.0 | 0.0 | 0.00 | 0.00 | 0.00 | 73 | 1015.4 |
| 20260901064551 | 81 | 187 | 0.0 | 0.0 | 0.00 | 0.00 | 0.00 | 72 | 1015.4 |
| 20260901063049 | 82 | 187 | 0.0 | 0.0 | 0.00 | 0.00 | 0.00 | 71 | 1015.4 |
| 20260901061548 | 82 | 187 | 0.0 | 0.0 | 0.00 | 0.00 | 0.00 | 70 | 1015.5 |
| 20260901060046 | 83 | 187 | 0.0 | 0.0 | 0.00 | 0.00 | 0.00 | 69 | 1015.4 |
| 20260901054545 | 83 | 191 | 0.0 | 0.0 | 0.00 | 0.00 | 0.00 | 69 | 1015.4 |
| 20260901053050 | 83 | 191 | 0.0 | 0.0 | 0.00 | 0.00 | 0.00 | 68 | 1015.4 |
| 20260901051540 | 83 | 191 | 0.0 | 0.0 | 0.00 | 0.00 | 0.00 | 68 | 1015.3 |
| 20260901050038 | 84 | 191 | 0.0 | 0.0 | 0.00 | 0.00 | 0.00 | 67 | 1015.3 |
| 20260901044540 | 84 | 191 | 0.0 | 0.0 | 0.00 | 0.00 | 0.00 | 66 | 1015.3 |
| 20260901043047 | 85 | 191 | 0.0 | 2.0 | 0.00 | 0.00 | 0.00 | 66 | 1015.4 |
| 20260901041536 | 85 | 191 | 0.0 | 3.0 | 0.00 | 0.00 | 0.00 | 65 | 1015.3 |
| 20260901040046 | 85 | 153 | 0.0 | 1.0 | 0.00 | 0.00 | 0.00 | 64 | 1015.3 |
| 20260901034545 | 86 | 153 | 0.0 | 2.0 | 0.00 | 0.00 | 0.00 | 64 | 1015.4 |
| 20260901033049 | 86 | 153 | 0.0 | 0.0 | 0.00 | 0.00 | 0.00 | 64 | 1015.3 |
| 20260901031535 | 86 | 153 | 0.0 | 8.0 | 0.00 | 0.00 | 0.00 | 63 | 1015.2 |
| 20260901030035 | 87 | 219 | 0.0 | 4.0 | 0.00 | 0.00 | 0.00 | 62 | 1015.2 |
| 20260901024541 | 87 | 205 | 0.0 | 3.0 | 0.00 | 0.00 | 0.00 | 62 | 1015.0 |
| 20260901023035 | 88 | 189 | 0.0 | 3.0 | 0.00 | 0.00 | 0.00 | 61 | 1014.9 |
| 20260901021532 | 88 | 226 | 0.0 | 5.0 | 0.00 | 0.00 | 0.00 | 61 | 1014.8 |
| 20260901020033 | 88 | 217 | 0.0 | 1.0 | 0.00 | 0.00 | 0.00 | 61 | 1014.7 |
| 20260901014532 | 89 | 198 | 0.0 | 0.0 | 0.00 | 0.00 | 0.00 | 60 | 1014.5 |
| 20260901013031 | 89 | 190 | 0.0 | 0.0 | 0.00 | 0.00 | 0.00 | 59 | 1014.3 |
| 20260901011530 | 90 | 190 | 0.0 | 0.0 | 0.00 | 0.00 | 0.00 | 58 | 1014.3 |
| 20260901010039 | 91 | 190 | 0.0 | 0.0 | 0.00 | 0.00 | 0.00 | 57 | 1014.3 |
| 20260901004530 | 93 | 190 | 0.0 | 0.0 | 0.00 | 0.00 | 0.00 | 56 | 1014.2 |
| 20260901003029 | 94 | 190 | 0.0 | 0.0 | 0.00 | 0.00 | 0.00 | 54 | 1014.2 |
| 20260901001532 | 96 | 190 | 0.0 | 0.0 | 0.00 | 0.00 | 0.00 | 51 | 1014.2 |
| 20260901000028 | 97 | 190 | 0.0 | 0.0 | 0.00 | 0.00 | 0.00 | 47 | 1014.2 |
| 20260831234537 | 98 | 190 | 0.0 | 1.0 | 0.00 | 0.00 | 0.00 | 47 | 1014.2 |
| 20260831233027 | 99 | 211 | 0.0 | 5.0 | 0.00 | 0.00 | 0.00 | 46 | 1014.2 |
| 20260831231526 | 99 | 192 | 0.0 | 5.0 | 0.00 | 0.00 | 0.00 | 45 | 1014.2 |
| 20260831230026 | 100 | 251 | 0.0 | 8.0 | 0.00 | 0.00 | 0.00 | 43 | 1014.1 |
| 20260831224524 | 100 | 185 | 1.0 | 10.0 | 0.00 | 0.00 | 0.00 | 44 | 1014.1 |
| 20260831223025 | 100 | 259 | 1.0 | 9.0 | 0.00 | 0.00 | 0.00 | 43 | 1014.1 |
| 20260831221526 | 100 | 211 | 1.0 | 5.0 | 0.00 | 0.00 | 0.00 | 43 | 1014.1 |
| 20260831220028 | 100 | 165 | 0.0 | 6.0 | 0.00 | 0.00 | 0.00 | 42 | 1014.1 |
| 20260831214522 | 101 | 169 | 1.0 | 10.0 | 0.00 | 0.00 | 0.00 | 41 | 1014.0 |
| 20260831213034 | 101 | 140 | 2.0 | 9.0 | 0.00 | 0.00 | 0.00 | 42 | 1014.0 |
| 20260831211519 | 101 | 250 | 2.0 | 12.0 | 0.00 | 0.00 | 0.00 | 46 | 1014.2 |
| 20260831210016 | 101 | 182 | 0.0 | 7.0 | 0.00 | 0.00 | 0.00 | 43 | 1014.2 |
| 20260831204513 | 100 | 228 | 0.0 | 7.0 | 0.00 | 0.00 | 0.00 | 43 | 1014.2 |
| 20260831203013 | 100 | 163 | 2.0 | 10.0 | 0.00 | 0.00 | 0.00 | 43 | 1014.3 |
| 20260831201511 | 100 | 177 | 1.0 | 9.0 | 0.00 | 0.00 | 0.00 | 43 | 1014.5 |
| 20260831200005 | 100 | 246 | 1.0 | 6.0 | 0.00 | 0.00 | 0.00 | 40 | 1014.7 |
| 20260831194503 | 99 | 246 | 0.0 | 7.0 | 0.00 | 0.00 | 0.00 | 42 | 1014.7 |
| 20260831193003 | 99 | 257 | 0.0 | 5.0 | 0.00 | 0.00 | 0.00 | 43 | 1014.8 |
| 20260831191559 | 99 | 221 | 0.0 | 5.0 | 0.00 | 0.00 | 0.00 | 43 | 1015.0 |
| 20260831190130 | 99 | 216 | 0.0 | 5.0 | 0.00 | 0.00 | 0.00 | 45 | 1015.1 |
| 20260831184554 | 98 | 261 | 0.0 | 7.0 | 0.00 | 0.00 | 0.00 | 46 | 1015.3 |
| 20260831183049 | 97 | 296 | 1.0 | 9.0 | 0.00 | 0.00 | 0.00 | 47 | 1015.5 |
| 20260831181554 | 97 | 236 | 0.0 | 5.0 | 0.00 | 0.00 | 0.00 | 47 | 1015.6 |
| 20260831180043 | 96 | 238 | 1.0 | 7.0 | 0.00 | 0.00 | 0.00 | 47 | 1015.8 |
| 20260831174549 | 95 | 144 | 1.0 | 10.0 | 0.00 | 0.00 | 0.00 | 48 | 1016.1 |
| 20260831173037 | 95 | 264 | 1.0 | 6.0 | 0.00 | 0.00 | 0.00 | 49 | 1016.3 |
| 20260831171534 | 94 | 294 | 1.0 | 9.0 | 0.00 | 0.00 | 0.00 | 50 | 1016.3 |
| 20260831170036 | 93 | 195 | 2.0 | 8.0 | 0.00 | 0.00 | 0.00 | 51 | 1016.6 |
| 20260831164527 | 92 | 258 | 4.0 | 10.0 | 0.00 | 0.00 | 0.00 | 50 | 1016.8 |